Simultaneous Nadir Overpasses (SNOs) Predictions

Prediction of SNOs between LANDSAT-8 and METOP-B Satellite Orbit:

Table of predicted SNOs for the next 14.0 days since TLE Epoch: 4/14/2018
Index Date (LANDSAT-8) Time (LANDSAT-8) Lat,Lon (LANDSAT-8) SZA (LANDSAT-8 ) Date (METOP-B) Time (METOP-B) Lat,Lon (METOP-B) SZA (METOP-B ) Distance(km) Time Diff (sec)
1 04/16/2018 01:50:49 81.14,-168.17 73.14 04/16/2018 01:50:12 81.15,-168.08 73.14 1.76 37
2 04/16/2018 02:40:15 -81.16, -0.25 106.84 04/16/2018 02:40:52 -81.16, -0.43 106.84 3.12 37
3 04/18/2018 21:25:01 81.15,-101.60 72.19 04/18/2018 21:24:32 81.15,-101.64 72.17 0.67 29
4 04/18/2018 22:14:27 -81.17, 66.34 107.78 04/18/2018 22:15:11 -81.17, 66.43 107.75 1.47 44
5 04/21/2018 16:59:14 81.16, -35.06 71.26 04/21/2018 16:58:53 81.15, -35.22 71.23 2.85 21
6 04/21/2018 17:48:40 -81.18, 132.91 108.71 04/21/2018 17:49:32 -81.17, 132.89 108.69 0.44 52
7 04/24/2018 12:33:27 81.16, 31.45 70.35 04/24/2018 12:33:13 81.16, 31.56 70.36 1.92 14
8 04/24/2018 13:22:53 -81.18,-160.56 109.61 04/24/2018 13:23:53 -81.17,-160.66 109.60 1.93 60
9 04/27/2018 08:07:39 81.16, 97.93 69.46 04/27/2018 08:07:33 81.16, 97.94 69.46 0.49 6




NCC Satellite Simultaneous Nadir Overpasses (SNOs) Prediction Service
